Brunswick, GA

12:22 AM EDT on July 26, 2017 (GMT -0400)
Glynco Jetport

Weather History for KBQK - October, 2012

Change the Weather History Date:

Saturday, October 27, 2012

  Actual Average Record
Temperature  
Mean Temperature 72 °F -  
Max Temperature 75 °F 77 °F 90 °F (1939)
Min Temperature 69 °F 55 °F 33 °F (2001)
Cooling Degree Days 7    
Growing Degree Days 22 (Base 50)    
Moisture  
Dew Point 64 °F    
Average Humidity 75    
Maximum Humidity 83    
Minimum Humidity 69    
Precipitation  
Precipitation 0.00 in - - ()
Sea Level Pressure  
Sea Level Pressure 29.65 in    
Wind  
Wind Speed 9 mph (NNW)    
Max Wind Speed 15 mph    
Max Gust Speed 25 mph    
Visibility 10 miles    
Events      
Averages and records for this station are not official NWS values.
T = Trace of Precipitation, MM = Missing Value Source: NWS Daily Summary

Daily Weather History Graph

Daily Weather History Graph

Search for Another Location

Airport or City:

Trip Planner

Search our weather history database for the weather conditions in past years. The results will help you decide how hot, cold, wet, or windy it might be!

Date:

Astronomy

Oct. 27, 2012 Rise Set
Actual Time 7:37 AM EDT 6:41 PM EDT
Civil Twilight 7:13 AM EDT 7:05 PM EDT
Nautical Twilight 6:44 AM EDT 7:34 PM EDT
Astronomical Twilight 6:16 AM EDT 8:02 PM EDT
Moon 5:22 PM EDT (10/27) 5:37 AM EDT (10/27)
Length of Visible Light 11h 52m
Length of Day
11h 03m
Waxing Gibbous, 96% of the Moon is Illuminated
Oct 27
Waxing Gibbous
Oct 29
Full
Nov 6
Last Quarter
Nov 13
New
Nov 20
First Quarter

Hourly Weather History & Observations

Time (EDT) Temp. Dew Point Humidity Pressure Visibility Wind Dir Wind Speed Gust Speed Precip Events Conditions
12:15 AM 71.6 °F 64.4 °F 78% 29.75 in 10.0 mi North 8.1 mph 16.1 mph N/A   Clear
12:35 AM 71.6 °F 64.4 °F 78% 29.74 in 10.0 mi North 5.8 mph - N/A   Clear
12:55 AM 71.6 °F 64.4 °F 78% 29.73 in 10.0 mi North 9.2 mph - N/A   Clear
1:15 AM 71.6 °F 64.4 °F 78% 29.72 in 10.0 mi North 6.9 mph - N/A   Clear
1:35 AM 71.6 °F 64.4 °F 78% 29.71 in 10.0 mi North 8.1 mph - N/A   Clear
1:55 AM 71.6 °F 64.4 °F 78% 29.70 in 10.0 mi North 10.4 mph - N/A   Clear
2:15 AM 71.6 °F 64.4 °F 78% 29.69 in 10.0 mi North 6.9 mph 18.4 mph N/A   Clear
2:35 AM 71.6 °F 64.4 °F 78% 29.69 in 10.0 mi North 6.9 mph - N/A   Clear
2:55 AM 71.6 °F 64.4 °F 78% 29.68 in 10.0 mi North 6.9 mph - N/A   Clear
3:15 AM 71.6 °F 64.4 °F 78% 29.67 in 10.0 mi NNW 8.1 mph - N/A   Clear
3:35 AM 69.8 °F 64.4 °F 83% 29.66 in 10.0 mi NNW 9.2 mph - N/A   Clear
3:55 AM 69.8 °F 64.4 °F 83% 29.65 in 10.0 mi NNW 9.2 mph - N/A   Clear
4:15 AM 69.8 °F 64.4 °F 83% 29.65 in 10.0 mi North 6.9 mph - N/A   Scattered Clouds
4:35 AM 69.8 °F 64.4 °F 83% 29.64 in 10.0 mi NNW 8.1 mph - N/A   Scattered Clouds
4:55 AM 69.8 °F 64.4 °F 83% 29.63 in 10.0 mi NNW 11.5 mph 16.1 mph N/A   Scattered Clouds
5:15 AM 69.8 °F 64.4 °F 83% 29.63 in 10.0 mi NNW 8.1 mph - N/A   Mostly Cloudy
5:35 AM 69.8 °F 64.4 °F 83% 29.63 in 10.0 mi NNW 9.2 mph - N/A   Mostly Cloudy
5:55 AM 69.8 °F 64.4 °F 83% 29.62 in 10.0 mi NNW 10.4 mph 16.1 mph N/A   Scattered Clouds
6:15 AM 69.8 °F 64.4 °F 83% 29.63 in 10.0 mi NNW 9.2 mph 17.3 mph N/A   Scattered Clouds
6:35 AM 69.8 °F 64.4 °F 83% 29.64 in 10.0 mi NNW 8.1 mph 20.7 mph N/A   Mostly Cloudy
6:55 AM 69.8 °F 64.4 °F 83% 29.63 in 10.0 mi NNW 11.5 mph 18.4 mph N/A   Overcast
7:15 AM 69.8 °F 64.4 °F 83% 29.64 in 10.0 mi North 9.2 mph 17.3 mph N/A   Overcast
7:35 AM 71.6 °F 64.4 °F 78% 29.64 in 10.0 mi NNW 8.1 mph 19.6 mph N/A   Overcast
7:55 AM 71.6 °F 64.4 °F 78% 29.65 in 10.0 mi NNW 8.1 mph 19.6 mph N/A   Overcast
8:15 AM 71.6 °F 64.4 °F 78% 29.65 in 10.0 mi NNW 8.1 mph 18.4 mph N/A   Overcast
8:35 AM 71.6 °F 64.4 °F 78% 29.66 in 10.0 mi NNW 8.1 mph 24.2 mph N/A   Overcast
8:55 AM 71.6 °F 64.4 °F 78% 29.67 in 10.0 mi NNW 15.0 mph 23.0 mph N/A   Overcast
9:15 AM 71.6 °F 64.4 °F 78% 29.67 in 10.0 mi NNW 12.7 mph 18.4 mph N/A   Overcast
9:35 AM 71.6 °F 64.4 °F 78% 29.66 in 10.0 mi NNW 10.4 mph 19.6 mph N/A   Mostly Cloudy
9:55 AM 71.6 °F 64.4 °F 78% 29.66 in 10.0 mi NNW 9.2 mph 21.9 mph N/A   Mostly Cloudy
10:15 AM 71.6 °F 64.4 °F 78% 29.67 in 10.0 mi NNW 12.7 mph 18.4 mph N/A   Mostly Cloudy
10:35 AM 71.6 °F 64.4 °F 78% 29.67 in 10.0 mi NNW 10.4 mph 20.7 mph N/A   Overcast
10:55 AM 71.6 °F 64.4 °F 78% 29.67 in 10.0 mi NNW 15.0 mph 19.6 mph N/A   Overcast
11:15 AM 71.6 °F 64.4 °F 78% 29.67 in 10.0 mi NNW 10.4 mph 23.0 mph N/A   Overcast
11:35 AM 73.4 °F 64.4 °F 73% 29.67 in 10.0 mi NNW 11.5 mph 17.3 mph N/A   Overcast
11:55 AM 73.4 °F 64.4 °F 73% 29.67 in 10.0 mi NNW 15.0 mph 21.9 mph N/A   Overcast
12:15 PM 73.4 °F 64.4 °F 73% 29.66 in 10.0 mi NNW 13.8 mph 23.0 mph N/A   Mostly Cloudy
12:35 PM 73.4 °F 64.4 °F 73% 29.65 in 10.0 mi North 10.4 mph 19.6 mph N/A   Mostly Cloudy
12:55 PM 73.4 °F 64.4 °F 73% 29.65 in 10.0 mi NNW 6.9 mph 18.4 mph N/A   Mostly Cloudy
1:15 PM 73.4 °F 64.4 °F 73% 29.64 in 10.0 mi NNW 11.5 mph 20.7 mph N/A   Mostly Cloudy
1:35 PM 75.2 °F 64.4 °F 69% 29.63 in 10.0 mi NNW 12.7 mph 20.7 mph N/A   Scattered Clouds
1:55 PM 75.2 °F 64.4 °F 69% 29.62 in 10.0 mi NNW 10.4 mph 19.6 mph N/A   Mostly Cloudy
2:15 PM 75.2 °F 64.4 °F 69% 29.62 in 10.0 mi NNW 8.1 mph 25.3 mph N/A   Scattered Clouds
2:35 PM 75.2 °F 64.4 °F 69% 29.61 in 10.0 mi NNW 10.4 mph 19.6 mph N/A   Scattered Clouds
2:55 PM 75.2 °F 64.4 °F 69% 29.61 in 10.0 mi NNW 12.7 mph 20.7 mph N/A   Clear
3:15 PM 75.2 °F 64.4 °F 69% 29.60 in 10.0 mi NNW 10.4 mph 18.4 mph N/A   Clear
3:35 PM 75.2 °F 64.4 °F 69% 29.60 in 10.0 mi NW 10.4 mph 17.3 mph N/A   Clear
3:55 PM 75.2 °F 64.4 °F 69% 29.60 in 10.0 mi NW 10.4 mph 18.4 mph N/A   Clear
4:15 PM 75.2 °F 64.4 °F 69% 29.60 in 10.0 mi NW 8.1 mph - N/A   Clear
4:35 PM 75.2 °F 64.4 °F 69% 29.60 in 10.0 mi NW 8.1 mph - N/A   Clear
4:55 PM 75.2 °F 64.4 °F 69% 29.60 in 10.0 mi NW 8.1 mph - N/A   Clear
5:15 PM 73.4 °F 64.4 °F 73% 29.60 in 10.0 mi NW 8.1 mph - N/A   Scattered Clouds
5:35 PM 73.4 °F 64.4 °F 73% 29.61 in 10.0 mi NW 6.9 mph - N/A   Mostly Cloudy
5:55 PM 73.4 °F 64.4 °F 73% 29.61 in 10.0 mi NW 5.8 mph - N/A   Scattered Clouds
6:15 PM 73.4 °F 64.4 °F 73% 29.61 in 10.0 mi NW 5.8 mph - N/A   Clear
6:35 PM 73.4 °F 64.4 °F 73% 29.62 in 10.0 mi NW 5.8 mph - N/A   Scattered Clouds
6:55 PM 73.4 °F 64.4 °F 73% 29.63 in 10.0 mi NW 5.8 mph - N/A   Mostly Cloudy
7:15 PM 73.4 °F 64.4 °F 73% 29.63 in 10.0 mi NW 5.8 mph - N/A   Overcast
7:35 PM 73.4 °F 62.6 °F 69% 29.64 in 10.0 mi NW 6.9 mph - N/A   Overcast
7:55 PM 73.4 °F 62.6 °F 69% 29.64 in 10.0 mi NW 4.6 mph - N/A   Overcast
8:15 PM 73.4 °F 62.6 °F 69% 29.64 in 10.0 mi NW 5.8 mph - N/A   Overcast
8:35 PM 73.4 °F 62.6 °F 69% 29.64 in 10.0 mi NW 8.1 mph - N/A   Scattered Clouds
8:55 PM 73.4 °F 62.6 °F 69% 29.64 in 10.0 mi NW 5.8 mph - N/A   Clear
9:15 PM 73.4 °F 62.6 °F 69% 29.65 in 10.0 mi NW 8.1 mph - N/A   Clear
9:35 PM 73.4 °F 62.6 °F 69% 29.65 in 10.0 mi NW 5.8 mph - N/A   Scattered Clouds
9:55 PM 73.4 °F 62.6 °F 69% 29.66 in 10.0 mi NW 4.6 mph - N/A   Mostly Cloudy
10:15 PM 71.6 °F 62.6 °F 73% 29.66 in 10.0 mi NW 5.8 mph - N/A   Scattered Clouds
10:35 PM 71.6 °F 62.6 °F 73% 29.66 in 10.0 mi NW 4.6 mph - N/A   Scattered Clouds
10:55 PM 71.6 °F 62.6 °F 73% 29.66 in 10.0 mi NW 4.6 mph - N/A   Clear
11:15 PM 71.6 °F 62.6 °F 73% 29.67 in 10.0 mi NW 5.8 mph - N/A   Clear
11:35 PM 71.6 °F 62.6 °F 73% 29.67 in 10.0 mi NW 6.9 mph - N/A   Clear
11:55 PM 71.6 °F 62.6 °F 73% 29.67 in 10.0 mi WNW 6.9 mph - N/A   Clear